Regional Weather Roundup
Issued by NWS Green Bay, WI

Home | Current Version | Previous Version | Text Only | Print | Product List | Glossary On
Versions: 1 2 3 4 5 6 7 8 9 10 11 12 13 14 15 16 17 18 19 20 21 22 23 24 25 26 27 28 29 30 31 32 33 34 35 36 37 38 39 40 41 42 43 44 45 46 47 48 49 50
000
ASUS43 KGRB 231411
RWRGRB

NORTH-CENTRAL AND NORTHEAST WISCONSIN REGIONAL WEATHER ROUNDUP
NATIONAL WEATHER SERVICE GREEN BAY WI
800 AM CST THU NOV 23 2017

WIZ005-009-010>012-018-019-231500-
NORTH CENTRAL WISCONSIN

CITY           SKY/WX    TMP DP  RH WIND       PRES   REMARKS
IRONWOOD       CLOUDY    22  18  85 SW5       29.89R
MANITOWISH WTR CLOUDY    22  20  90 W6        29.86S
ARBOR VITAE    CLEAR     23  21  92 SW5       29.86S
EAGLE RIVER    CLOUDY    24  18  80 SW3       29.85F
LAND O LAKES   CLOUDY    22  19  89 SW3       29.86F
RHINELANDER    CLOUDY    23  20  88 SW5       29.88F
PHILLIPS       CLOUDY    23  19  87 CALM      29.88S
ANTIGO         CLOUDY    24  20  85 CALM      29.90F
TOMAHAWK       CLOUDY    25  19  80 CALM      29.89F
MERRILL        CLOUDY    23  21  93 CALM      29.92F
$$

WIZ013-073-231500-
NORTHEAST WISCONSIN

CITY           SKY/WX    TMP DP  RH WIND       PRES   REMARKS
IRON MOUNTAIN  CLOUDY    26  18  71 S5        29.88S
MARINETTE      CLOUDY    30  22  72 SW5       29.95F
OCONTO         MOCLDY    29  22  76 SW3       29.96R
$$

WIZ017-030-035>037-045-231500-
CENTRAL WISCONSIN

CITY           SKY/WX    TMP DP  RH WIND       PRES   REMARKS
MEDFORD        CLOUDY    18  16  92 S3        29.89S
WAUSAU         CLOUDY    24  20  84 SE3       29.91S
MOSINEE        PTCLDY    21  19  93 W3        29.93R
MARSHFIELD     CLOUDY    23  16  74 CALM      29.91R
WISC RAPIDS    CLOUDY    22  18  85 CALM      29.95R
STEVENS POINT  CLOUDY    19  17  93 CALM      29.94S
WAUPACA        CLOUDY    26  22  84 CALM      29.96R
SHAWANO        CLOUDY    28  23  81 CALM      29.95R
CLINTONVILLE   CLOUDY    25  21  86 CALM      29.95S
WAUTOMA        CLOUDY    26  22  84 CALM      29.96R
$$

WIZ038-039-048-051-231500-
FOX VALLEY

CITY           SKY/WX    TMP DP  RH WIND       PRES   REMARKS
NWS GREEN BAY  CLOUDY    29  23  78 CALM      29.96S
APPLETON       PTCLDY    28  19  69 SW5       29.94S
OSHKOSH        MOCLDY    30  22  72 S7        29.96R
FOND DU LAC    CLOUDY    33  19  56 SW7       29.96S
$$

WIZ022-050-052-231500-
EAST CENTRAL WISCONSIN

CITY           SKY/WX    TMP DP  RH WIND       PRES   REMARKS
EPHRAIM        CLOUDY    32  21  64 SW7G16    29.93S
WASHINGTON ISL CLOUDY    32  24  71 W10G17    29.94S
STURGEON BAY   CLOUDY    31  23  72 SW8       29.96S
MANITOWOC      CLOUDY    31  22  69 SW7       29.97F
SHEBOYGAN      CLOUDY    32  23  69 S6        29.98S
$$

LMZ563-521-522-541>543-231500-
LAKESHORE

STATION/POSITION TIME  TEMP    WIND        PRES    VSBY  WAVE
                       AIR SEA DIR/SP/G                  HT/PER
                 (UTC) (F)     (DEG/KT/KT) (MB)    (MI)  (FT/S)
SHEBOYGAN LKSHOR 1400   33     220/ 10/ 11 1015.8F
KEWAUNEE LKSHORE 1342   31     240/  5/  8 1013.9F
NORTHPORT PIER   1401   33     280/  5/ 11 1013.5
N MID LAKE BUOY  1350   34 47  240/ 14/ 17 1014.8F         4/ 6
SISTER BAY LKSHO 1405   35     280/ 14/ 16   N/A
MENOMINEE LKSHOR 1342   30     210/  6/  8 1014.1R
$$




USA.gov is the U.S. government's official web portal to all federal, state and local government web resources and services.